Location: Passau
(48.5721°N, 13.4363°E)
Time: 10:46:10
(UTC+01:00)

ISS - Pass Details

Date: 10 January 2018
Orbit: 402 x 406 km, 51.6° (Epoch: 16 January)

Event Time Altitude Azimuth Distance (km) Brightness Sun altitude
Exits shadow 06:32:38 26° 286° (WNW) 853 -2.8 -13.3°
Maximum altitude 06:34:21 75° 204° (SSW) 424 -3.8 -13.0°
Drops below altitude 10° 06:37:38 10° 119° (ESE) 1,463 0.4 -12.5°
Sets 06:39:42 0° 118° (ESE) 2,321 2.0 -12.2°
